Time,TemperatureF,DewpointF,PressureIn,WindDirection,WindDirectionDegrees,WindSpeedMPH,WindSpeedGustMPH,Humidity,HourlyPrecipIn,Conditions,Clouds,dailyrainin,SoftwareType,DateUTC
2013-06-02 00:10:00,51.7,49.0,29.99,WNW,291,6.0,11.0,90,0.00,,,0.00,weatherlink.com 1.10,2013-06-02 05:10:00,
2013-06-02 00:25:00,51.7,49.0,29.99,NW,314,6.0,12.0,90,0.00,,,0.00,weatherlink.com 1.10,2013-06-02 05:25:00,
2013-06-02 00:40:00,51.9,49.0,30.00,WNW,296,9.0,11.0,89,0.00,,,0.00,weatherlink.com 1.10,2013-06-02 05:40:00,
2013-06-02 00:55:00,52.1,49.0,30.00,WNW,300,10.0,13.0,88,0.00,,,0.00,weatherlink.com 1.10,2013-06-02 05:55:00,
2013-06-02 01:10:00,52.1,49.0,30.00,NW,309,8.0,14.0,88,0.00,,,0.00,weatherlink.com 1.10,2013-06-02 06:10:00,
2013-06-02 01:25:00,51.8,48.0,30.01,WNW,297,6.0,12.0,88,0.00,,,0.00,weatherlink.com 1.10,2013-06-02 06:25:00,
2013-06-02 01:40:00,51.8,48.0,30.01,NNW,330,5.0,11.0,88,0.00,,,0.00,weatherlink.com 1.10,2013-06-02 06:40:00,
2013-06-02 01:55:00,51.6,48.0,30.02,WNW,298,7.0,12.0,88,0.00,,,0.00,weatherlink.com 1.10,2013-06-02 06:55:00,
2013-06-02 02:10:00,51.2,48.0,30.02,WNW,299,6.0,12.0,88,0.00,,,0.00,weatherlink.com 1.10,2013-06-02 07:10:00,
2013-06-02 02:25:00,50.9,48.0,30.02,WNW,294,5.0,14.0,89,0.00,,,0.00,weatherlink.com 1.10,2013-06-02 07:25:00,
2013-06-02 02:40:00,50.8,47.0,30.03,WNW,303,6.0,12.0,88,0.00,,,0.00,weatherlink.com 1.10,2013-06-02 07:40:00,
2013-06-02 02:55:00,50.7,47.0,30.02,WNW,297,5.0,15.0,87,0.00,,,0.00,weatherlink.com 1.10,2013-06-02 07:55:00,
2013-06-02 03:10:00,50.6,47.0,30.02,WNW,294,5.0,14.0,86,0.00,,,0.00,weatherlink.com 1.10,2013-06-02 08:10:00,
2013-06-02 03:25:00,50.8,47.0,30.02,WNW,290,10.0,15.0,86,0.00,,,0.00,weatherlink.com 1.10,2013-06-02 08:25:00,
2013-06-02 03:40:00,50.8,47.0,30.02,NW,305,5.0,11.0,86,0.00,,,0.00,weatherlink.com 1.10,2013-06-02 08:40:00,
2013-06-02 03:55:00,50.7,46.0,30.03,NW,321,5.0,13.0,85,0.00,,,0.00,weatherlink.com 1.10,2013-06-02 08:55:00,
2013-06-02 04:10:00,50.7,46.0,30.03,WNW,290,6.0,12.0,85,0.00,,,0.00,weatherlink.com 1.10,2013-06-02 09:10:00,
2013-06-02 04:25:00,50.9,46.0,30.02,NW,321,5.0,17.0,84,0.00,,,0.00,weatherlink.com 1.10,2013-06-02 09:25:00,
2013-06-02 04:40:00,50.9,46.0,30.02,WNW,289,4.0,10.0,84,0.00,,,0.00,weatherlink.com 1.10,2013-06-02 09:40:00,
2013-06-02 04:55:00,51.0,46.0,30.02,NNE,19,6.0,11.0,83,0.00,,,0.00,weatherlink.com 1.10,2013-06-02 09:55:00,
2013-06-02 05:10:00,51.2,46.0,30.03,WNW,290,6.0,12.0,82,0.00,,,0.00,weatherlink.com 1.10,2013-06-02 10:10:00,
2013-06-02 05:25:00,51.2,46.0,30.04,NW,307,8.0,13.0,81,0.00,,,0.00,weatherlink.com 1.10,2013-06-02 10:25:00,
2013-06-02 05:40:00,51.1,46.0,30.04,NNW,342,4.0,12.0,82,0.00,,,0.00,weatherlink.com 1.10,2013-06-02 10:40:00,
2013-06-02 05:55:00,51.0,46.0,30.05,North,360,4.0,14.0,83,0.00,,,0.00,weatherlink.com 1.10,2013-06-02 10:55:00,
2013-06-02 06:10:00,50.7,46.0,30.05,WNW,303,4.0,9.0,84,0.00,,,0.00,weatherlink.com 1.10,2013-06-02 11:10:00,
2013-06-02 06:25:00,50.7,46.0,30.05,NW,306,6.0,10.0,84,0.00,,,0.00,weatherlink.com 1.10,2013-06-02 11:25:00,
2013-06-02 06:40:00,50.7,46.0,30.06,WNW,301,7.0,7.0,84,0.00,,,0.00,weatherlink.com 1.10,2013-06-02 11:40:00,
2013-06-02 06:56:00,50.8,46.0,30.05,North,355,3.0,7.0,84,0.00,,,0.00,weatherlink.com 1.10,2013-06-02 11:56:00,
2013-06-02 07:11:00,51.1,46.0,30.06,North,351,0.0,7.0,83,0.00,,,0.00,weatherlink.com 1.10,2013-06-02 12:11:00,
2013-06-02 07:26:00,51.4,46.0,30.06,NW,316,0.0,5.0,83,0.00,,,0.00,weatherlink.com 1.10,2013-06-02 12:26:00,
2013-06-02 07:41:00,51.5,47.0,30.07,NW,322,4.0,6.0,83,0.00,,,0.00,weatherlink.com 1.10,2013-06-02 12:41:00,
2013-06-02 07:56:00,51.6,47.0,30.07,NNW,331,7.0,10.0,83,0.00,,,0.00,weatherlink.com 1.10,2013-06-02 12:56:00,
2013-06-02 08:11:00,52.2,47.0,30.08,WNW,299,3.0,7.0,82,0.00,,,0.00,weatherlink.com 1.10,2013-06-02 13:11:00,
2013-06-02 08:26:00,52.7,47.0,30.08,NNW,335,0.0,8.0,80,0.00,,,0.00,weatherlink.com 1.10,2013-06-02 13:26:00,
2013-06-02 08:41:00,53.0,46.0,30.09,North,355,4.0,10.0,78,0.00,,,0.00,weatherlink.com 1.10,2013-06-02 13:41:00,
2013-06-02 08:56:00,53.2,47.0,30.09,NNW,337,0.0,10.0,78,0.00,,,0.00,weatherlink.com 1.10,2013-06-02 13:56:00,
2013-06-02 09:11:00,53.6,46.0,30.09,WNW,294,5.0,10.0,75,0.00,,,0.00,weatherlink.com 1.10,2013-06-02 14:11:00,
2013-06-02 09:26:00,54.6,47.0,30.08,WNW,300,8.0,11.0,75,0.00,,,0.00,weatherlink.com 1.10,2013-06-02 14:26:00,
2013-06-02 09:41:00,54.5,47.0,30.09,West,271,7.0,10.0,75,0.00,,,0.00,weatherlink.com 1.10,2013-06-02 14:41:00,
2013-06-02 09:56:00,55.2,47.0,30.09,WNW,294,11.0,11.0,73,0.00,,,0.00,weatherlink.com 1.10,2013-06-02 14:56:00,
2013-06-02 10:11:00,55.3,46.0,30.09,North,5,6.0,11.0,70,0.00,,,0.00,weatherlink.com 1.10,2013-06-02 15:11:00,
2013-06-02 10:26:00,55.4,45.0,30.09,NNW,348,0.0,9.0,68,0.00,,,0.00,weatherlink.com 1.10,2013-06-02 15:26:00,
2013-06-02 10:41:00,55.6,46.0,30.09,WNW,295,6.0,12.0,69,0.00,,,0.00,weatherlink.com 1.10,2013-06-02 15:41:00,
2013-06-02 10:56:00,55.9,46.0,30.09,WNW,298,7.0,11.0,70,0.00,,,0.00,weatherlink.com 1.10,2013-06-02 15:56:00,
2013-06-02 11:11:00,56.8,47.0,30.09,NW,319,4.0,9.0,69,0.00,,,0.00,weatherlink.com 1.10,2013-06-02 16:11:00,
2013-06-02 11:26:00,56.7,47.0,30.09,North,10,2.0,9.0,70,0.00,,,0.00,weatherlink.com 1.10,2013-06-02 16:26:00,
2013-06-02 11:41:00,57.4,46.0,30.09,NNW,335,3.0,7.0,66,0.00,,,0.00,weatherlink.com 1.10,2013-06-02 16:41:00,
2013-06-02 11:56:00,57.9,46.0,30.09,NNE,19,2.0,9.0,64,0.00,,,0.00,weatherlink.com 1.10,2013-06-02 16:56:00,
2013-06-02 12:11:00,58.1,46.0,30.08,NNW,339,6.0,10.0,64,0.00,,,0.00,weatherlink.com 1.10,2013-06-02 17:11:00,
2013-06-02 12:26:00,59.3,48.0,30.08,NW,305,0.0,12.0,66,0.00,,,0.00,weatherlink.com 1.10,2013-06-02 17:26:00,
2013-06-02 12:41:00,60.1,47.0,30.07,East,87,0.0,8.0,62,0.00,,,0.00,weatherlink.com 1.10,2013-06-02 17:41:00,
2013-06-02 12:56:00,60.2,47.0,30.07,NNW,342,1.0,12.0,62,0.00,,,0.00,weatherlink.com 1.10,2013-06-02 17:56:00,
2013-06-02 13:11:00,59.9,45.0,30.07,NW,306,5.0,9.0,59,0.00,,,0.00,weatherlink.com 1.10,2013-06-02 18:11:00,
2013-06-02 13:26:00,60.5,46.0,30.07,NNW,331,6.0,10.0,60,0.00,,,0.00,weatherlink.com 1.10,2013-06-02 18:26:00,
2013-06-02 13:41:00,60.6,45.0,30.07,NW,317,4.0,9.0,57,0.00,,,0.00,weatherlink.com 1.10,2013-06-02 18:41:00,
2013-06-02 13:56:00,60.7,45.0,30.06,East,93,5.0,12.0,56,0.00,,,0.00,weatherlink.com 1.10,2013-06-02 18:56:00,
2013-06-02 14:11:00,61.5,46.0,30.06,NE,53,0.0,8.0,58,0.00,,,0.00,weatherlink.com 1.10,2013-06-02 19:11:00,
2013-06-02 14:26:00,63.1,47.0,30.06,WNW,294,0.0,8.0,57,0.00,,,0.00,weatherlink.com 1.10,2013-06-02 19:26:00,
2013-06-02 14:41:00,63.1,45.0,30.06,WSW,248,0.0,6.0,53,0.00,,,0.00,weatherlink.com 1.10,2013-06-02 19:41:00,
2013-06-02 14:56:00,62.5,46.0,30.05,NW,315,1.0,9.0,55,0.00,,,0.00,weatherlink.com 1.10,2013-06-02 19:56:00,
2013-06-02 15:11:00,62.5,47.0,30.05,ESE,113,0.0,9.0,57,0.00,,,0.00,weatherlink.com 1.10,2013-06-02 20:11:00,
2013-06-02 15:26:00,64.2,46.0,30.05,NNW,327,6.0,10.0,51,0.00,,,0.00,weatherlink.com 1.10,2013-06-02 20:26:00,
2013-06-02 15:41:00,64.0,46.0,30.04,NNW,342,0.0,7.0,53,0.00,,,0.00,weatherlink.com 1.10,2013-06-02 20:41:00,
2013-06-02 15:57:00,64.0,45.0,30.04,East,84,0.0,5.0,50,0.00,,,0.00,weatherlink.com 1.10,2013-06-02 20:57:00,
2013-06-02 16:12:00,64.9,45.0,30.03,ENE,69,4.0,7.0,49,0.00,,,0.00,weatherlink.com 1.10,2013-06-02 21:12:00,
2013-06-02 16:27:00,66.1,45.0,30.03,WNW,289,4.0,5.0,47,0.00,,,0.00,weatherlink.com 1.10,2013-06-02 21:27:00,
2013-06-02 16:42:00,67.1,45.0,30.02,ESE,120,0.0,2.0,45,0.00,,,0.00,weatherlink.com 1.10,2013-06-02 21:42:00,
2013-06-02 16:57:00,66.3,44.0,30.01,WNW,285,3.0,5.0,44,0.00,,,0.00,weatherlink.com 1.10,2013-06-02 21:57:00,
2013-06-02 17:12:00,65.2,44.0,30.01,North,5,0.0,6.0,47,0.00,,,0.00,weatherlink.com 1.10,2013-06-02 22:12:00,
2013-06-02 17:27:00,65.8,45.0,30.00,NE,44,3.0,4.0,47,0.00,,,0.00,weatherlink.com 1.10,2013-06-02 22:27:00,
2013-06-02 17:42:00,65.9,44.0,30.00,NE,44,0.0,0.0,46,0.00,,,0.00,weatherlink.com 1.10,2013-06-02 22:42:00,
2013-06-02 17:57:00,66.8,45.0,29.99,NE,44,0.0,3.0,45,0.00,,,0.00,weatherlink.com 1.10,2013-06-02 22:57:00,
2013-06-02 18:12:00,66.0,44.0,29.99,ENE,67,0.0,4.0,45,0.00,,,0.00,weatherlink.com 1.10,2013-06-02 23:12:00,
2013-06-02 18:27:00,65.5,43.0,29.98,NE,44,0.0,4.0,44,0.00,,,0.00,weatherlink.com 1.10,2013-06-02 23:27:00,
2013-06-02 18:42:00,66.9,44.0,29.98,NE,36,0.0,1.0,44,0.00,,,0.00,weatherlink.com 1.10,2013-06-02 23:42:00,
2013-06-02 18:57:00,66.1,45.0,29.97,East,85,0.0,3.0,46,0.00,,,0.00,weatherlink.com 1.10,2013-06-02 23:57:00,
2013-06-02 19:12:00,66.1,45.0,29.98,East,85,2.0,2.0,46,0.00,,,0.00,weatherlink.com 1.10,2013-06-03 00:12:00,
2013-06-02 19:27:00,65.9,45.0,29.97,East,85,0.0,2.0,47,0.00,,,0.00,weatherlink.com 1.10,2013-06-03 00:27:00,
2013-06-02 19:42:00,65.4,44.0,29.97,East,85,2.0,2.0,47,0.00,,,0.00,weatherlink.com 1.10,2013-06-03 00:42:00,
2013-06-02 19:57:00,64.7,45.0,29.97,East,85,0.0,2.0,49,0.00,,,0.00,weatherlink.com 1.10,2013-06-03 00:57:00,
2013-06-02 20:12:00,64.4,46.0,29.97,East,85,0.0,0.0,51,0.00,,,0.00,weatherlink.com 1.10,2013-06-03 01:12:00,
2013-06-02 20:27:00,63.8,46.0,29.97,East,85,0.0,0.0,52,0.00,,,0.00,weatherlink.com 1.10,2013-06-03 01:27:00,
2013-06-02 20:42:00,62.8,46.0,29.97,East,85,0.0,0.0,54,0.00,,,0.00,weatherlink.com 1.10,2013-06-03 01:42:00,
2013-06-02 20:57:00,61.8,47.0,29.97,East,85,0.0,2.0,58,0.00,,,0.00,weatherlink.com 1.10,2013-06-03 01:57:00,
2013-06-02 21:12:00,61.4,46.0,29.97,East,85,3.0,5.0,58,0.00,,,0.00,weatherlink.com 1.10,2013-06-03 02:12:00,
2013-06-02 21:27:00,60.7,46.0,29.98,SE,126,2.0,5.0,59,0.00,,,0.00,weatherlink.com 1.10,2013-06-03 02:27:00,
2013-06-02 21:42:00,59.7,46.0,29.98,SE,126,3.0,5.0,62,0.00,,,0.00,weatherlink.com 1.10,2013-06-03 02:42:00,
2013-06-02 21:57:00,59.4,46.0,29.98,SE,126,3.0,5.0,62,0.00,,,0.00,weatherlink.com 1.10,2013-06-03 02:57:00,
2013-06-02 22:12:00,59.0,46.0,29.99,SE,126,4.0,4.0,62,0.00,,,0.00,weatherlink.com 1.10,2013-06-03 03:12:00,
2013-06-02 22:27:00,59.0,46.0,29.99,SE,126,4.0,4.0,62,0.00,,,0.00,weatherlink.com 1.10,2013-06-03 03:27:00,
2013-06-02 22:42:00,59.1,45.0,29.99,SE,138,4.0,5.0,61,0.00,,,0.00,weatherlink.com 1.10,2013-06-03 03:42:00,
2013-06-02 22:57:00,58.9,45.0,29.99,SE,138,2.0,5.0,61,0.00,,,0.00,weatherlink.com 1.10,2013-06-03 03:57:00,
2013-06-02 23:12:00,58.7,45.0,29.99,SE,138,2.0,4.0,61,0.00,,,0.00,weatherlink.com 1.10,2013-06-03 04:12:00,
2013-06-02 23:27:00,58.7,45.0,29.99,SE,142,1.0,4.0,61,0.00,,,0.00,weatherlink.com 1.10,2013-06-03 04:27:00,
2013-06-02 23:42:00,58.8,45.0,29.99,SSE,149,3.0,5.0,61,0.00,,,0.00,weatherlink.com 1.10,2013-06-03 04:42:00,
2013-06-02 23:57:00,58.5,45.0,29.98,SE,145,2.0,3.0,62,0.00,,,0.00,weatherlink.com 1.10,2013-06-03 04:57:00,